RH
69 70 71 71 72 73 75 80 84 86 87 88 86 84 83 86 93 97 97 98 98 98 99 98 95 91 86 84 84 81 77 70 64 64 65 68 72 79 87 92 94 97 98 95 92 84 73 66 62 58 56 55 54 53 57 63 70 77 82 83 83 85 86
68 70 71 71 71 72 74 78 84 88 90 89 86 84 85 90 95 98 99 100 100 100 101 101 101 98 93 90 89 89 86 81 73 67 64 65 67 69 75 81 83 85 89 88 85 82 78 73 68 61 56 57 57 56 55 56 60 67 76 82 84 85 86
66 68 69 70 70 71 73 77 84 90 92 91 88 86 86 91 95 99 101 101 100 100 101 101 100 97 94 92 91 89 86 83 79 74 70 66 65 66 66 70 75 78 79 80 80 77 75 73 70 65 59 58 59 58 58 59 57 59 66 73 80 83 86
65 67 68 69 70 72 74 77 83 90 91 91 91 88 86 89 94 99 101 101 100 100 101 102 100 96 94 95 96 94 90 88 83 78 74 69 65 64 64 64 68 74 80 85 84 79 73 70 68 65 61 60 59 57 57 59 59 61 62 64 71 77 80
64 66 68 69 70 73 76 79 84 91 93 92 92 90 88 91 96 99 101 100 99 100 100 101 100 98 98 99 97 94 90 88 85 80 74 70 65 62 62 63 63 66 74 83 87 87 83 77 70 66 62 60 58 55 54 56 57 61 63 62 63 67 71
63 65 66 68 71 74 78 81 87 93 94 92 92 92 92 94 95 97 100 100 99 99 100 99 99 99 101 102 99 94 88 85 84 82 78 72 64 59 58 60 61 62 65 69 76 83 87 86 79 70 64 63 62 57 53 53 52 54 59 62 62 62 63
65 66 67 68 70 75 79 82 88 93 94 93 93 93 94 96 97 98 100 100 99 99 100 99 99 100 101 102 100 95 91 89 86 84 83 77 67 58 53 54 58 64 68 69 70 73 79 83 82 77 69 64 65 65 59 56 54 51 52 55 57 58 58
69 69 68 68 70 74 80 84 87 89 91 93 94 95 96 98 100 100 99 100 100 100 101 100 100 101 100 101 102 100 97 95 92 89 85 80 74 65 56 50 51 57 65 71 74 75 77 78 79 78 72 65 68 71 65 58 54 50 48 48 49 51 53
73 72 70 69 71 74 80 83 84 87 90 92 95 97 99 99 99 100 100 99 98 97 99 99 98 98 101 101 101 101 100 99 99 97 91 84 81 76 66 56 50 50 57 66 72 75 79 82 79 76 72 69 67 66 64 65 63 50 41 40 39 40 45
76 75 72 71 71 74 81 83 83 87 90 93 96 98 98 96 95 95 97 96 93 88 91 96 95 92 97 102 101 101 101 100 100 100 97 93 91 87 81 71 61 53 52 60 71 74 76 79 76 74 76 72 65 59 59 63 61 45 36 42 44 38 37
76 76 75 74 73 74 81 84 85 89 93 96 99 100 99 95 91 91 92 95 93 87 85 92 97 95 95 98 100 101 101 100 100 100 99 99 99 97 94 90 84 74 64 65 76 83 86 86 79 75 75 71 68 62 53 55 64 67 71 79 77 62 45
77 77 77 77 75 76 80 84 89 93 95 97 99 100 100 98 96 95 94 95 96 92 86 87 92 95 95 93 95 98 100 99 100 100 100 100 100 99 98 98 98 96 89 84 84 86 91 95 93 89 81 74 69 59 50 65 87 96 99 98 95 88 69
78 78 79 79 79 80 81 85 91 95 96 99 99 100 101 99 99 100 98 98 99 98 96 93 90 88 83 82 90 95 96 95 96 99 100 99 100 100 100 99 99 99 100 99 96 92 89 87 89 96 98 90 76 55 53 80 101 100 98 98 98 98 82
80 80 81 82 84 84 84 87 93 96 98 100 100 100 100 99 98 99 99 100 100 99 100 99 97 91 78 75 85 92 93 95 95 97 100 100 100 100 99 100 100 99 99 99 100 100 98 89 79 81 94 103 96 78 74 92 102 98 98 99 98 100 92
82 82 82 87 91 89 86 89 95 98 100 101 100 99 100 99 99 100 100 99 99 100 100 99 101 96 83 78 86 92 96 99 99 99 100 100 99 99 100 100 99 99 100 99 99 99 100 100 89 76 78 90 98 98 94 95 99 99 99 97 94 95 95
83 84 85 90 95 94 89 90 96 101 100 100 100 99 100 100 100 100 100 99 100 101 100 100 100 95 88 89 94 98 100 101 100 100 101 100 98 98 98 94 90 96 101 99 100 100 98 102 101 90 81 75 74 80 85 87 90 93 95 95 92 90 92
85 86 88 92 96 97 94 92 97 101 100 99 100 99 100 100 99 100 100 100 101 100 99 100 100 98 97 96 91 90 97 101 101 99 99 100 99 99 95 83 79 91 101 99 99 101 99 100 101 99 97 88 76 74 80 86 88 85 87 94 95 93 95
86 87 91 94 97 100 98 94 98 101 100 99 101 99 100 100 99 100 100 98 99 100 99 100 100 99 101 96 84 81 89 97 99 100 101 99 98 99 90 74 73 86 95 98 101 100 99 100 100 99 101 100 95 93 93 96 96 93 93 97 99 97 97
87 88 94 98 99 101 101 98 99 101 100 100 100 99 100 100 100 100 99 98 99 98 95 97 99 99 99 99 94 90 89 90 93 98 102 98 97 97 81 65 72 84 88 94 100 100 100 100 98 98 99 99 99 99 99 101 99 99 100 100 99 99 99
89 90 95 100 101 102 101 99 99 101 101 100 101 100 100 100 100 100 99 99 101 95 86 84 90 93 93 95 97 96 94 94 95 98 101 99 100 94 74 64 75 84 86 93 99 100 100 99 98 99 99 101 98 89 89 99 102 100 100 98 97 99 100
91 93 96 100 102 102 102 100 99 101 100 100 101 100 99 99 100 100 99 99 101 96 84 77 81 87 89 90 94 96 92 88 89 95 98 100 100 90 76 76 85 88 91 98 101 100 101 100 97 93 88 91 89 72 66 81 91 91 89 85 88 97 100
94 96 97 99 102 102 102 100 100 101 100 101 101 98 94 93 94 97 99 99 101 97 86 78 80 86 88 87 92 98 93 82 83 93 99 100 99 92 86 90 96 97 98 100 100 100 101 96 89 81 72 70 66 53 50 60 69 74 74 72 80 95 101
97 98 97 99 101 102 102 102 100 100 100 100 99 95 89 85 86 93 99 100 100 96 85 76 76 82 86 86 88 96 96 88 89 97 100 99 98 97 96 97 99 100 100 100 100 99 96 91 86 80 74 67 55 43 44 52 58 62 64 69 83 95 99
100 100 99 100 101 100 102 102 101 100 100 98 94 89 85 82 84 94 100 100 100 97 83 72 73 82 90 93 96 100 96 89 92 98 101 100 100 99 99 98 100 101 100 99 101 99 94 90 88 85 82 77 64 50 45 49 54 59 64 75 89 96 96
100 101 100 101 101 98 97 98 99 100 98 93 88 83 80 79 84 94 99 99 100 98 85 76 81 93 98 98 100 99 92 85 87 92 95 96 97 97 96 94 96 100 100 99 100 101 98 94 93 92 87 81 76 70 65 62 62 67 76 86 93 95 95
101 101 101 102 102 98 94 93 94 93 90 87 85 82 81 82 86 93 95 94 95 95 91 88 93 99 100 98 97 95 91 89 90 91 91 89 89 90 88 85 88 96 100 100 98 100 100 97 97 99 95 88 83 81 78 78 78 79 84 89 91 95 96
101 101 102 102 99 95 93 91 89 87 85 83 84 86 89 92 94 94 94 94 95 97 97 98 99 100 97 97 97 94 92 95 97 97 96 94 91 88 82 80 87 96 100 100 99 99 100 99 99 100 100 98 94 84 77 79 81 82 84 88 93 97 99
101 101 102 100 97 94 93 90 87 85 83 82 86 92 97 99 98 96 97 99 100 99 99 99 100 100 99 98 99 97 96 97 98 98 100 100 97 94 90 90 95 99 100 100 100 99 99 100 101 100 99 101 98 85 77 80 83 85 88 91 94 97 96
101 100 100 100 98 97 94 88 83 82 84 87 92 97 100 100 98 97 99 100 99 99 100 100 99 100 100 99 98 97 95 96 97 98 100 100 99 98 98 98 99 100 100 100 100 100 100 99 100 100 99 101 97 86 79 84 90 94 96 96 98 95 87
100 98 99 100 99 99 96 90 84 83 87 92 95 99 101 99 97 98 100 100 100 99 99 100 100 100 100 99 97 97 97 97 99 99 100 100 100 100 99 99 100 100 100 100 99 99 100 100 100 100 99 100 99 93 90 93 96 99 100 100 101 96 84
99 99 100 100 100 98 92 87 87 89 94 97 99 101 99 94 95 100 100 98 98 98 97 99 101 101 100 100 99 98 98 99 100 100 100 100 100 100 100 100 101 100 99 100 100 100 100 100 99 101 100 99 99 98 98 99 99 99 100 100 100 98 91
101 101 101 100 98 93 86 86 92 96 97 98 98 95 91 91 97 99 93 90 95 99 100 101 101 100 101 102 102 99 98 100 100 100 100 100 99 100 100 101 102 101 100 100 100 99 100 100 99 100 100 99 99 99 99 99 99 100 100 100 100 100 98
98 96 95 93 91 90 91 96 100 100 99 98 93 87 86 94 100 94 87 91 99 100 100 101 101 100 100 100 102 102 100 100 99 96 95 94 93 93 93 93 95 98 99 101 101 100 100 100 100 100 100 100 100 100 99 99 99 100 100 100 99 100 100
92 88 87 88 91 95 98 99 99 99 100 96 89 85 88 94 96 91 90 96 100 99 100 101 101 101 101 99 101 102 99 97 96 93 91 90 87 85 82 80 81 83 86 91 96 99 99 100 100 99 99 99 99 100 100 100 99 99 100 100 100 100 100
93 90 90 92 93 93 92 93 95 96 96 92 88 88 90 91 92 93 94 97 98 98 100 101 100 100 100 99 100 101 99 97 95 93 90 89 87 84 80 75 73 74 75 77 81 85 90 94 95 95 95 94 94 94 95 95 96 96 97 99 100 100 99
96 94 92 91 89 85 84 88 90 90 91 92 90 89 88 87 90 93 95 96 97 97 97 99 100 100 100 100 100 100 100 100 98 94 91 89 87 86 83 78 74 73 76 79 81 82 84 87 90 92 93 92 90 88 87 87 89 91 94 97 100 100 100
Wind_Speed
26 25 25 25 25 24 23 21 20 20 20 21 21 21 20 21 20 20 20 21 22 22 23 24 25 25 24 24 24 24 24 26 27 30 32 33 33 33 32 30 27 29 34 33 30 32 35 35 36 36 36 36 35 34 32 31 28 24 22 22 21 22 23
28 27 27 26 26 26 24 23 21 21 21 21 21 21 20 20 20 20 20 20 22 23 23 25 26 27 26 26 26 26 25 26 26 28 32 33 33 34 34 33 32 33 35 35 34 35 35 34 35 38 38 37 37 36 34 35 35 31 27 24 22 22 23
29 29 28 28 27 27 25 24 23 22 22 22 21 21 20 20 20 20 20 20 21 21 22 24 26 27 27 26 27 28 27 27 27 28 30 32 34 34 34 34 34 35 36 36 35 36 37 36 36 38 39 38 38 38 36 35 37 37 35 31 26 24 24
30 30 29 28 28 27 26 25 23 23 23 22 21 21 20 19 19 19 19 19 19 19 20 22 24 25 25 25 27 27 27 28 28 29 30 32 33 35 35 35 34 35 34 34 34 35 37 37 36 38 40 40 40 41 39 37 36 36 37 38 34 30 27
30 30 29 29 28 28 27 25 24 23 23 21 20 20 20 19 19 19 19 18 18 18 18 20 21 21 22 24 26 27 27 27 28 28 29 31 33 35 36 36 36 36 35 33 34 34 34 34 36 39 41 40 41 43 43 41 39 37 36 38 39 38 33
30 30 29 29 28 28 27 25 24 23 22 20 19 20 20 19 19 19 19 19 18 17 17 17 18 18 18 21 23 25 25 25 26 26 27 29 31 34 36 37 38 38 37 37 37 36 33 32 34 37 40 40 39 41 44 44 43 42 39 37 39 42 41
30 30 30 29 29 28 26 25 24 23 21 20 19 19 19 19 20 20 20 19 19 17 15 15 15 15 16 17 19 20 21 22 23 24 25 26 28 31 34 38 39 39 38 39 39 38 36 35 33 34 38 39 36 37 40 42 44 45 44 42 41 42 43
30 30 29 29 29 28 26 25 25 23 20 20 19 19 19 19 20 21 21 21 20 17 15 15 15 16 16 16 16 17 17 18 19 21 22 23 24 26 29 34 38 39 40 40 40 40 39 37 36 36 37 37 34 35 38 39 39 43 45 44 43 44 44
29 30 29 29 29 28 26 26 24 21 19 19 19 19 19 20 20 21 21 20 19 18 16 17 17 17 17 16 16 16 17 17 17 18 19 19 20 22 24 28 32 36 39 40 40 41 40 38 39 40 39 37 36 36 38 36 33 36 40 40 42 45 46
29 29 29 28 28 28 27 26 23 20 19 19 19 18 19 20 20 20 20 19 18 17 17 19 20 19 18 17 17 17 17 18 18 19 19 18 18 20 21 24 27 31 35 37 38 39 39 40 43 42 39 38 38 38 37 34 31 33 35 35 38 43 46
28 28 28 28 28 27 27 25 21 19 19 18 17 17 17 18 18 18 17 17 19 19 18 20 22 21 20 19 18 18 18 18 19 19 19 19 20 21 21 22 24 26 29 33 35 36 35 37 41 41 38 38 37 36 35 32 29 29 29 29 30 34 39
28 27 27 27 27 27 27 24 20 19 19 17 16 15 16 18 19 19 18 19 20 22 22 23 23 23 22 21 19 19 19 18 18 18 18 19 21 23 24 25 25 25 25 28 31 33 34 34 34 33 32 34 34 32 30 28 27 27 27 26 25 27 29
27 26 26 26 25 26 26 23 19 18 18 16 15 15 15 17 19 20 22 23 25 26 27 27 27 26 24 22 20 20 19 18 18 18 18 19 22 24 26 28 30 30 30 30 30 32 34 33 31 27 23 22 24 27 29 29 29 29 27 25 24 25 25
26 25 25 24 24 24 25 23 19 17 17 16 16 15 15 17 19 20 22 25 27 29 30 29 29 28 25 23 21 20 19 18 18 18 18 19 21 23 24 26 29 32 33 34 35 36 35 32 31 31 26 18 18 24 29 29 29 29 28 25 23 23 24
25 24 23 22 23 24 24 22 18 17 17 16 16 15 15 15 16 18 20 20 21 22 24 25 26 27 25 23 21 18 17 17 17 17 18 19 21 21 22 22 24 26 30 33 36 38 38 35 32 32 33 30 27 27 29 30 30 29 28 28 27 24 24
24 23 22 21 22 23 23 21 18 18 17 16 16 15 12 10 14 16 16 13 12 14 16 17 18 20 20 20 19 18 16 16 16 16 18 19 20 20 20 20 20 21 24 28 32 35 38 37 34 31 33 34 33 32 32 31 31 31 31 31 30 27 24
23 22 21 21 21 22 22 20 18 18 18 17 16 13 8 12 15 15 14 12 10 10 9 8 10 13 15 17 18 18 17 16 17 19 20 21 22 22 21 20 19 19 21 24 27 31 33 34 33 31 31 32 32 33 33 32 33 34 32 30 29 29 26
22 21 20 20 19 20 21 20 18 17 18 18 16 10 8 12 14 15 15 15 14 12 8 5 6 9 12 16 19 18 16 15 17 21 23 23 23 24 23 22 21 21 21 22 24 27 29 31 32 32 32 33 33 32 32 32 33 33 30 28 29 30 29
21 20 19 18 18 19 19 19 18 18 19 18 15 10 9 11 12 14 16 16 16 16 15 12 12 13 14 15 17 18 16 15 17 21 23 23 23 25 25 22 21 22 22 21 22 23 26 28 31 33 35 36 37 36 35 33 33 33 31 29 30 31 30
20 20 18 17 18 18 18 18 18 18 19 18 14 13 12 11 12 15 16 15 16 20 22 19 16 16 17 18 17 17 16 16 18 21 23 24 25 26 25 23 23 24 24 23 21 20 21 25 28 31 35 38 40 42 40 38 36 36 35 32 31 31 31
19 18 16 15 16 17 17 16 16 18 19 16 14 15 16 15 16 17 17 16 18 21 24 22 17 14 15 17 19 19 18 18 18 20 22 25 27 27 26 25 26 28 28 28 25 21 20 22 24 27 31 36 40 43 44 42 42 40 37 33 32 32 31
18 17 15 14 14 15 15 15 15 16 17 16 15 16 17 18 20 20 16 16 19 22 23 23 19 15 13 14 17 20 21 20 19 19 20 23 26 27 27 27 28 29 31 32 29 23 20 21 23 24 26 29 34 39 42 43 43 41 37 33 32 31 31
16 16 14 13 13 12 13 14 15 15 16 16 17 17 17 18 19 18 16 16 21 23 23 23 21 17 14 13 14 17 20 20 19 19 19 19 21 23 24 24 24 24 26 29 30 25 21 20 22 23 24 24 27 33 38 40 40 38 35 31 30 30 31
15 15 14 13 12 12 12 13 15 17 17 17 17 17 17 17 17 17 16 17 21 23 23 23 21 17 15 15 14 15 17 20 20 19 18 17 18 19 18 16 17 19 20 23 27 26 24 21 21 22 23 23 22 25 30 34 35 34 32 30 29 30 30
14 14 13 12 12 12 12 13 15 16 16 15 15 15 16 17 17 17 17 18 21 23 23 22 19 17 16 15 15 17 19 21 22 22 21 20 19 18 16 14 15 17 20 23 26 27 26 24 23 22 21 20 20 22 24 27 30 31 31 30 30 30 32
13 13 11 10 11 12 12 13 14 14 14 12 13 16 16 15 15 15 17 19 20 21 21 19 16 16 16 17 18 19 19 19 21 22 22 22 22 21 20 18 16 17 21 24 25 27 27 26 24 22 20 18 20 23 25 26 28 30 30 30 30 30 32
13 12 9 10 11 11 12 13 13 13 13 13 15 16 13 11 12 13 13 13 14 15 15 14 14 15 16 16 17 18 18 18 18 19 20 21 22 22 21 20 18 17 20 24 26 28 28 25 22 22 22 20 20 23 26 27 28 29 29 28 28 29 30
13 10 7 10 12 12 13 14 14 15 15 14 15 14 11 11 14 13 8 6 10 11 12 12 13 15 16 16 16 18 18 18 18 19 19 20 21 20 20 19 18 17 19 22 26 29 29 27 23 21 21 20 20 22 25 26 26 27 27 26 26 27 27
15 9 7 11 13 14 15 17 17 16 15 15 14 13 12 14 16 12 6 6 10 10 10 11 13 15 16 17 17 17 17 17 17 17 18 18 18 18 17 16 16 17 17 19 23 26 27 27 25 22 19 18 19 21 23 22 22 23 23 23 23 25 25
13 8 9 12 15 18 19 19 19 17 17 17 15 12 12 14 15 11 7 8 12 14 14 15 16 16 16 15 15 14 13 13 12 13 14 15 15 15 14 14 15 16 16 17 19 23 25 26 26 24 21 19 19 20 21 21 20 20 20 21 22 24 24
10 12 12 14 19 21 21 20 20 19 18 16 13 12 15 15 12 10 11 13 15 17 18 17 17 15 14 14 13 12 10 10 10 10 11 11 12 12 13 13 14 14 14 15 17 20 22 25 26 26 25 23 22 22 22 22 21 21 20 20 22 24 24
16 21 22 22 24 24 22 21 20 18 17 15 14 16 17 12 9 12 15 15 15 15 15 15 15 14 13 13 12 11 9 9 9 9 8 9 9 9 10 11 11 12 13 14 15 16 18 20 23 25 26 26 26 26 26 25 25 24 21 20 22 24 23
23 25 24 24 24 22 21 20 17 15 15 17 18 18 14 10 11 15 15 13 13 14 14 14 14 13 13 13 12 11 10 9 9 9 8 9 9 9 9 9 10 10 11 12 13 14 15 16 18 20 22 24 25 27 28 28 29 28 24 20 21 22 21
24 23 21 21 20 18 17 17 16 15 17 19 17 15 12 10 13 15 13 13 13 13 13 14 14 13 13 13 11 10 10 9 9 9 8 8 9 9 9 10 10 11 12 12 13 13 14 15 16 17 19 20 22 24 26 28 30 31 29 25 23 23 24
22 21 20 20 19 17 17 16 16 17 18 18 15 13 11 11 12 13 13 14 13 12 13 14 14 14 14 13 11 11 10 10 9 9 8 8 8 8 9 9 10 11 12 13 14 14 15 15 16 17 18 19 19 21 22 24 27 30 31 29 28 27 28
19 19 18 18 17 17 16 16 16 16 16 16 14 12 11 10 10 11 12 12 11 11 11 12 13 14 14 13 13 12 11 11 10 8 8 7 7 8 8 9 10 10 11 12 13 14 15 15 16 17 17 18 19 19 20 21 23 25 28 29 29 29 29
Wind_Direction
266 268 270 272 274 277 279 280 282 284 284 284 283 282 284 286 286 283 280 276 272 268 266 265 264 264 262 261 262 261 259 256 253 251 250 250 250 248 245 246 248 254 259 260 259 260 260 257 257 257 256 256 253 249 247 248 248 245 240 236 233 231 229
266 267 269 270 272 275 277 278 279 281 282 282 282 281 283 286 286 284 281 278 273 269 265 263 263 263 262 261 260 260 259 257 255 253 252 250 250 251 249 248 250 254 259 262 262 262 263 262 260 258 257 258 258 255 250 248 247 247 247 243 240 236 233
266 267 268 269 271 273 275 277 276 277 280 281 280 279 281 283 284 282 281 279 277 274 269 265 263 262 262 261 260 260 259 258 256 254 253 252 250 251 251 250 251 254 258 263 264 264 264 265 264 261 259 259 261 260 257 253 248 246 246 246 246 243 238
266 267 268 269 270 272 273 274 274 275 278 279 276 275 277 282 284 283 282 281 279 277 273 269 267 264 263 261 261 261 259 258 257 255 253 253 251 250 251 250 251 252 256 261 265 264 264 265 266 265 262 261 261 261 260 258 254 250 247 245 245 246 244
266 267 269 269 270 271 271 272 273 274 276 277 274 273 274 278 282 283 284 283 281 279 275 273 271 269 267 264 261 260 259 257 257 256 254 253 251 250 250 250 250 251 253 256 261 263 264 265 265 265 265 264 263 263 262 261 259 257 254 249 245 245 246
265 266 267 268 268 269 270 271 270 271 275 276 273 272 273 275 279 283 285 284 282 281 279 276 276 275 271 266 263 260 259 257 256 255 254 252 251 250 250 250 251 252 253 254 256 259 261 262 263 263 265 265 266 265 265 265 262 259 258 256 252 247 246
265 266 266 266 267 268 269 269 268 269 273 275 273 271 271 275 280 284 285 282 280 280 280 280 282 283 279 274 270 267 264 261 258 256 255 254 251 250 249 249 250 251 252 254 255 256 257 258 259 261 263 265 267 268 267 267 267 264 260 259 259 255 251
266 265 265 264 265 266 267 267 267 267 270 272 271 269 268 273 278 281 281 280 277 277 279 281 283 284 285 283 280 278 274 268 263 261 259 257 255 253 250 249 248 249 250 252 254 255 256 257 257 258 260 262 265 267 266 266 268 268 266 265 265 263 259
267 266 265 264 264 265 265 265 266 267 268 269 268 265 265 270 274 275 275 276 275 274 277 282 284 284 285 285 284 283 279 274 269 264 264 263 259 257 256 253 250 248 248 250 253 254 255 255 256 255 256 257 258 261 265 267 270 271 271 270 269 267 264
267 267 266 265 265 264 263 264 266 266 265 265 265 264 265 267 268 270 273 276 278 278 279 284 287 288 287 285 283 281 279 278 273 268 267 268 264 259 258 257 255 252 250 250 252 254 254 253 254 253 253 254 255 257 262 265 267 268 268 267 267 267 265
268 268 267 265 264 264 263 263 263 264 262 259 258 260 265 268 269 272 278 284 287 289 289 290 290 290 289 286 281 277 277 279 278 274 272 271 269 266 263 260 258 256 254 252 251 253 254 253 254 254 252 252 253 255 258 260 260 261 263 264 264 265 265
269 268 267 265 262 262 263 263 261 258 256 252 248 250 258 266 271 275 280 283 287 290 291 291 290 289 288 285 283 279 274 271 272 273 274 273 271 269 267 267 267 265 262 257 253 253 252 252 256 259 259 255 251 249 248 247 249 252 256 262 265 264 263
269 268 266 264 261 260 260 260 257 252 249 244 240 240 247 258 265 270 276 281 284 286 287 286 285 284 284 284 284 281 273 266 264 265 269 272 270 265 260 259 261 264 268 267 263 259 255 251 249 250 257 260 251 241 234 235 244 249 252 260 266 265 264
269 268 265 262 259 257 257 256 252 245 240 235 234 236 240 249 260 270 281 288 292 291 287 283 279 278 281 284 284 282 277 272 267 264 266 270 269 267 263 256 252 252 256 261 263 264 265 262 251 239 234 234 233 231 231 234 243 250 254 259 265 266 266
269 267 263 259 256 254 254 252 246 236 230 228 230 233 235 249 273 289 294 298 299 291 282 278 275 274 277 281 283 284 284 281 275 270 271 271 269 267 267 264 258 253 250 250 253 257 262 268 265 249 235 226 222 225 230 235 244 252 258 260 263 265 264
269 266 261 255 253 252 251 248 239 228 224 225 225 224 237 279 301 296 290 296 297 285 280 279 276 275 277 280 283 284 283 283 282 276 271 270 270 270 268 264 262 263 260 254 252 253 256 260 263 258 246 237 232 229 231 239 248 253 257 261 266 271 270
267 264 259 254 250 250 249 244 232 223 223 222 216 217 261 307 299 278 270 277 277 271 279 287 282 279 278 276 276 275 273 273 274 275 274 272 272 272 271 265 263 268 269 264 258 256 255 256 254 250 245 242 238 235 236 243 251 252 255 262 267 271 274
264 261 258 254 249 246 245 239 226 221 224 218 210 221 281 300 287 270 266 269 265 256 253 257 263 268 271 270 269 271 271 267 264 267 271 272 271 269 266 265 268 274 276 272 265 257 253 252 250 246 243 241 238 237 238 242 247 250 255 260 263 267 273
262 258 255 253 246 240 240 236 225 222 225 218 212 233 272 287 283 271 263 266 273 271 263 253 245 244 249 258 267 273 275 269 263 264 265 267 268 265 260 261 270 279 281 280 275 264 255 250 248 244 242 241 239 236 234 235 240 245 248 252 256 263 270
260 256 252 247 241 236 235 234 227 226 227 223 225 243 254 262 271 268 261 264 272 276 275 272 265 256 252 251 256 263 267 266 264 264 263 263 264 263 260 265 275 281 281 279 277 272 263 254 250 246 241 240 239 236 232 232 234 238 241 247 254 260 265
257 255 250 241 235 233 233 233 232 232 230 229 239 249 249 251 257 260 264 268 268 270 277 279 277 269 262 258 256 256 257 260 263 265 263 259 260 262 264 271 277 279 278 276 273 270 263 254 251 249 245 241 238 235 232 231 232 234 237 243 250 258 264
254 253 247 236 229 230 233 233 235 236 234 237 247 253 252 254 256 256 263 274 272 269 274 279 280 276 270 265 260 255 255 259 263 266 265 260 259 262 265 270 274 275 274 273 270 266 261 254 248 248 248 245 239 233 230 231 233 234 237 241 248 256 262
251 249 241 228 221 227 235 236 233 234 236 241 248 256 260 261 259 255 259 269 271 269 270 275 278 277 274 275 271 264 262 264 266 270 270 264 260 261 263 267 271 269 269 271 267 259 254 254 250 246 247 247 239 230 228 230 233 235 237 241 247 253 258
246 242 234 223 220 227 236 237 235 235 238 243 250 259 266 266 262 258 260 266 269 269 268 270 273 278 283 287 284 275 266 263 263 267 271 267 262 261 261 263 265 264 265 269 266 257 252 254 255 250 247 248 242 231 227 229 233 236 239 245 249 252 254
240 233 226 224 228 236 240 239 240 239 241 248 258 266 269 266 261 259 263 266 267 268 268 266 269 278 284 279 271 268 268 267 263 261 263 265 266 267 267 266 268 267 264 263 262 259 255 258 262 259 253 249 244 237 231 230 232 237 242 248 252 253 253
231 222 223 232 242 247 247 247 249 246 247 262 278 281 276 268 261 261 264 266 267 269 269 263 260 265 269 267 266 269 272 272 269 266 265 265 264 265 267 268 270 270 264 261 262 261 258 258 263 264 261 254 245 238 234 232 234 239 244 247 250 251 251
219 214 226 247 254 254 253 255 258 259 262 278 289 288 284 282 281 277 272 271 272 268 262 256 254 259 264 266 271 274 273 271 271 272 272 271 268 266 265 265 265 263 259 256 257 259 259 258 261 262 259 256 250 241 236 236 238 242 245 247 247 248 247
210 210 245 270 268 263 262 263 266 269 277 289 295 294 299 304 298 287 279 295 298 281 261 255 259 269 277 277 273 272 272 272 271 270 269 272 274 272 268 262 258 256 254 249 248 251 254 254 256 259 258 255 252 245 241 242 245 247 248 248 246 244 242
204 214 280 288 273 268 271 273 274 279 287 294 296 299 303 298 289 282 282 308 302 282 263 260 266 274 282 281 274 271 272 272 271 267 264 265 268 272 272 265 255 253 252 246 240 242 244 245 248 256 259 255 252 248 246 247 248 247 246 246 245 243 240
211 245 287 282 268 266 271 275 280 287 292 292 292 294 290 282 279 280 283 279 269 258 253 259 268 276 281 280 276 276 278 277 273 267 261 257 255 257 260 261 257 254 250 243 237 236 237 239 243 250 252 250 249 249 250 253 254 253 251 248 246 244 240
239 252 248 248 257 264 270 276 284 289 290 290 287 280 277 279 279 273 259 253 255 257 259 264 269 274 278 280 278 278 278 275 269 262 258 255 252 250 250 253 256 255 249 243 238 234 233 236 241 246 250 250 249 250 252 255 257 260 260 255 246 241 239
243 239 232 236 249 261 271 280 286 288 285 282 275 273 278 283 274 262 257 256 261 266 266 266 266 268 271 275 276 274 271 267 261 259 259 258 258 258 256 252 251 250 247 245 242 240 237 236 237 241 246 248 249 250 251 251 250 250 253 256 250 241 237
230 235 237 243 251 260 269 275 278 279 278 275 275 281 288 281 261 263 266 263 262 263 263 262 262 264 268 271 270 264 259 256 256 260 265 267 267 269 269 265 259 254 249 246 244 243 242 240 239 240 241 243 245 247 247 248 247 244 244 248 249 244 240
231 241 250 257 264 268 266 264 264 266 270 274 280 290 293 277 265 269 270 259 253 254 256 258 260 262 266 268 265 257 251 251 254 260 267 274 279 280 280 279 274 268 261 255 251 247 245 245 245 245 244 244 244 245 245 246 246 247 246 245 243 242 243
237 247 253 260 266 265 261 261 264 266 270 279 288 294 289 278 271 270 266 259 253 249 249 253 257 259 261 261 257 251 248 248 251 256 263 271 280 287 289 289 285 280 273 267 262 259 256 253 251 251 251 250 249 249 248 247 246 247 249 248 245 245 247
239 244 248 252 255 256 258 262 267 270 277 285 291 291 285 281 276 271 267 262 255 251 251 253 254 256 257 256 252 249 245 242 243 249 261 272 280 287 292 294 293 288 280 274 269 266 265 262 260 258 256 254 253 253 252 252 251 249 249 248 247 246 248